Regional Weather Roundup
Issued by NWS

Home | Current Version | Previous Version | Graphics & Text | Print | Product List | Glossary On
Versions: 1 2 3 4 5 6 7 8 9 10 11 12 13 14 15 16 17 18 19 20 21 22 23 24 25 26 27 28 29 30 31 32 33 34 35 36 37 38 39 40 41 42 43 44 45 46 47 48 49 50
000
ASUS43 KOAX 232002
RWRNE

WEATHER ROUNDUP FOR NEBRASKA
NATIONAL WEATHER SERVICE OMAHA NE
300 PM CDT THU OCT 23 2014

NOTES: SATELLITE DATA IS BEING USED TO AUGMENT CLOUD COVER ABOVE
       12000 FEET.
       "FAIR" INDICATES FEW OR NO CLOUDS BELOW 12,000 FEET WITH NO
       SIGNIFICANT WEATHER AND/OR OBSTRUCTIONS TO VISIBILITY.

  * THESE STATIONS DO NOT REPORT WEATHER SUCH AS RAIN...SNOW OR FOG.

NEZ001>004-019>022-054>056-232100-
NEBRASKA PANHANDLE

CITY           SKY/WX    TMP DP  RH WIND       PRES   REMARKS
SCOTTSBLUFF    PTSUNNY   74  33  22 W17G25    30.01F
ALLIANCE       CLOUDY    68  32  26 W18G26    30.00F
CHADRON        CLOUDY    69  34  27 SW14      29.94F
KIMBALL        PTSUNNY   69  33  25 W16       30.06F
SIDNEY         PTSUNNY   71  40  32 SW16      30.06F
$$

NEZ057>060-069>072-079>082-232100-
SOUTHWEST NEBRASKA

CITY           SKY/WX    TMP DP  RH WIND       PRES   REMARKS
NORTH PLATTE   PTSUNNY   74  40  29 SW13      30.00F
IMPERIAL       MOSUNNY   75  40  28 SW10      30.03F
LEXINGTON      PTSUNNY   69  54  57 SW12      30.03F
MCCOOK         MOSUNNY   74  46  36 S12       30.04F
OGALLALA       PTSUNNY   78  38  24 W9        30.02F
$$

NEZ005>010-023>029-035>040-094-232100-
NORTH CENTRAL NEBRASKA

CITY           SKY/WX    TMP DP  RH WIND       PRES   REMARKS
VALENTINE      CLOUDY    73  33  23 SW13      29.94F
AINSWORTH      MOSUNNY   74  38  26 SW15      29.95F
BROKEN BOW     PTSUNNY   71  48  43 SW15      30.00F
O`NEILL        SUNNY     73  39  29 SW10      29.97F
ORD            SUNNY     71  46  40 SW13      29.98F
THEDFORD       CLOUDY    74  40  29 SW17      29.98F
$$

NEZ041-046>049-061>064-073>077-083>087-232100-
SOUTH CENTRAL NEBRASKA

CITY           SKY/WX    TMP DP  RH WIND       PRES   REMARKS
GRAND ISLAND   SUNNY     63  55  75 S10       30.04F
AURORA         SUNNY     64  56  75 SW9       30.03F
HASTINGS       CLOUDY    58  54  86 S9        30.05F
HEBRON         SUNNY     73  51  46 W5        30.03F
HOLDREGE       MOSUNNY   63  55  76 S10       30.05F
KEARNEY *      SUNNY     64  55  72 SE12      30.04F
YORK           SUNNY     68  54  60 SW10      30.04F
$$

NEZ011>018-030>034-042>045-232100-
NORTHEAST NEBRASKA

CITY           SKY/WX    TMP DP  RH WIND       PRES   REMARKS
NORFOLK        SUNNY     70  45  40 S14       30.00F
ALBION         SUNNY     69  46  43 SW12      30.01F
BLAIR          SUNNY     71  51  49 SW7       30.03S
COLUMBUS *     SUNNY     66  52  59 S7        30.04F
FREMONT        SUNNY     71  44  38 CALM      30.02F
TEKAMAH        SUNNY     72  47  40 S3        30.01F
WAYNE          SUNNY     71  47  41 S12       30.00F
$$

NEZ050>053-065>068-078-088>093-232100-
SOUTHEAST NEBRASKA

CITY           SKY/WX    TMP DP  RH WIND       PRES   REMARKS
LINCOLN        SUNNY     70  51  51 CALM      30.04F
OMAHA EPPLEY   SUNNY     70  53  54 E3        30.02F
BEATRICE       SUNNY     72  54  53 SW6       30.03F
FALLS CITY     SUNNY     73  55  53 VRB5      30.02F
NEBRASKA CITY  SUNNY     69  52  54 NW6       30.03F
PLATTSMOUTH    SUNNY     70  49  47 NW3       30.02F
$$

NEZ044-045-051>053-067-232100-
OMAHA AREA

CITY           SKY/WX    TMP DP  RH WIND       PRES   REMARKS
OMAHA EPPLEY   SUNNY     70  53  54 E3        30.02F
BLAIR          SUNNY     71  51  49 SW7       30.03S
FREMONT        SUNNY     71  44  38 CALM      30.02F
OFFUTT AFB     SUNNY     71  55  56 VRB1      30.02F
PLATTSMOUTH    SUNNY     70  49  47 NW3       30.02F
WAHOO          FAIR      71  46  40 S7        30.02F
$$



USA.gov is the U.S. government's official web portal to all federal, state and local government web resources and services.